When you browse on this site, cookies collect data to enhance your experience and personalize the content and advertising you see.
Visit our Privacy Policy to learn more. By continuing to use the site, you agree to this use of cookies and data.
  • In Switzerland
  • List of Countries
  • For 7 days
  • Water Temperature
  • Satellite Maps
  • Weather Map
  • Weather Widgets
  • user-avatar
    Login

    Hourly Weather Eldoret

    Today, 22 January, Tuesday

    Time Temperature Precipitation Wind Pressure Humidity
    00:00 +15°C° 0 mm 1 mps 597 mmHg 82%
    01:00 +15°C° 0 mm 1 mps 597 mmHg 84%
    02:00 +14°C° 0 mm 2 mps 596 mmHg 85%
    03:00 +14°C° 0 mm 2 mps 596 mmHg 86%
    04:00 +14°C° 0 mm 2 mps 596 mmHg 87%
    05:00 +14°C° 0 mm 2 mps 596 mmHg 87%
    06:00 +16°C° 0 mm 2 mps 597 mmHg 77%
    07:00 +18°C° 0 mm 2 mps 598 mmHg 67%
    08:00 +20°C° 0 mm 3 mps 599 mmHg 57%
    09:00 +22°C° 0 mm 3 mps 599 mmHg 49%
    10:00 +26°C° 0 mm 3 mps 600 mmHg 41%
    11:00 +28°C° 0 mm 3 mps 600 mmHg 32%
    12:00 +27°C° 0 mm 2 mps 599 mmHg 33%
    13:00 +27°C° 0 mm 2 mps 599 mmHg 33%
    14:00 +27°C° 0 mm 2 mps 598 mmHg 34%
    15:00 +25°C° 0 mm 1 mps 597 mmHg 38%
    16:00 +24°C° 0 mm 1 mps 597 mmHg 42%
    17:00 +22°C° 0 mm 1 mps 596 mmHg 46%
    18:00 +22°C° 0 mm 1 mps 596 mmHg 48%
    19:00 +21°C° 0 mm 1 mps 597 mmHg 50%
    20:00 +20°C° 0 mm 1 mps 597 mmHg 51%
    21:00 +19°C° 0 mm 2 mps 597 mmHg 52%
    22:00 +18°C° 0 mm 2 mps 597 mmHg 54%
    23:00 +17°C° 0 mm 3 mps 597 mmHg 55%

    Tomorrow, 23 January, Wednesday

    Time Temperature Precipitation Wind Pressure Humidity
    00:00 +17°C° 0 mm 3 mps 597 mmHg 60%
    01:00 +16°C° 0 mm 3 mps 597 mmHg 66%
    02:00 +16°C° 0 mm 3 mps 596 mmHg 72%
    03:00 +14°C° 0 mm 3 mps 596 mmHg 72%
    04:00 +14°C° 0 mm 3 mps 596 mmHg 72%
    05:00 +14°C° 0 mm 3 mps 596 mmHg 73%
    06:00 +17°C° 0 mm 3 mps 597 mmHg 64%
    07:00 +19°C° 0 mm 4 mps 598 mmHg 55%
    08:00 +21°C° 0 mm 4 mps 599 mmHg 47%
    09:00 +24°C° 0 mm 3 mps 600 mmHg 39%
    10:00 +27°C° 0 mm 3 mps 600 mmHg 32%
    11:00 +29°C° 0 mm 2 mps 601 mmHg 24%
    12:00 +29°C° 0 mm 2 mps 600 mmHg 25%
    13:00 +28°C° 0 mm 2 mps 599 mmHg 26%
    14:00 +28°C° 0 mm 2 mps 598 mmHg 27%
    15:00 +26°C° 0 mm 1 mps 598 mmHg 34%
    16:00 +24°C° 0 mm 1 mps 597 mmHg 40%
    17:00 +22°C° 0 mm 1 mps 596 mmHg 47%
    18:00 +22°C° 0.1 mm 1 mps 597 mmHg 51%
    19:00 +21°C° 0.1 mm 1 mps 597 mmHg 55%
    20:00 +20°C° 0.1 mm 1 mps 597 mmHg 59%
    21:00 +19°C° 0 mm 1 mps 597 mmHg 61%
    22:00 +18°C° 0 mm 2 mps 597 mmHg 64%
    23:00 +17°C° 0 mm 2 mps 597 mmHg 66%

    Day after tomorrow, 24 January, Thursday

    Time Temperature Precipitation Wind Pressure Humidity
    00:00 +17°C° 0 mm 3 mps 597 mmHg 68%
    01:00 +16°C° 0 mm 3 mps 597 mmHg 71%
    02:00 +16°C° 0 mm 3 mps 596 mmHg 73%
    03:00 +16°C° 0 mm 3 mps 597 mmHg 71%
    04:00 +16°C° 0 mm 3 mps 597 mmHg 68%
    05:00 +16°C° 0 mm 3 mps 597 mmHg 66%
    06:00 +17°C° 0 mm 4 mps 598 mmHg 58%
    07:00 +19°C° 0 mm 4 mps 599 mmHg 50%
    08:00 +21°C° 0 mm 4 mps 600 mmHg 42%
    09:00 +24°C° 0 mm 3 mps 600 mmHg 36%
    10:00 +26°C° 0 mm 2 mps 601 mmHg 30%
    11:00 +29°C° 0 mm 2 mps 602 mmHg 25%
    12:00 +29°C° 0 mm 2 mps 601 mmHg 24%
    13:00 +29°C° 0 mm 2 mps 600 mmHg 24%
    14:00 +29°C° 0 mm 2 mps 599 mmHg 24%
    15:00 +27°C° 0 mm 2 mps 598 mmHg 29%
    16:00 +26°C° 0 mm 1 mps 598 mmHg 34%
    17:00 +24°C° 0 mm 1 mps 597 mmHg 39%
    18:00 +23°C° 0 mm 1 mps 597 mmHg 43%
    19:00 +21°C° 0 mm 1 mps 598 mmHg 46%
    20:00 +20°C° 0 mm 1 mps 598 mmHg 50%
    21:00 +19°C° 0 mm 1 mps 598 mmHg 50%
    22:00 +17°C° 0 mm 2 mps 598 mmHg 49%
    23:00 +17°C° 0 mm 2 mps 598 mmHg 49%

    25 January, Friday

    Time Temperature Precipitation Wind Pressure Humidity
    00:00 +16°C° 0 mm 3 mps 597 mmHg 53%
    01:00 +16°C° 0 mm 3 mps 597 mmHg 57%
    02:00 +14°C° 0 mm 4 mps 596 mmHg 61%
    03:00 +14°C° 0 mm 4 mps 596 mmHg 58%
    04:00 +14°C° 0 mm 4 mps 596 mmHg 55%
    05:00 +14°C° 0 mm 4 mps 597 mmHg 52%
    06:00 +17°C° 0 mm 4 mps 598 mmHg 47%
    07:00 +19°C° 0 mm 4 mps 599 mmHg 41%
    08:00 +21°C° 0 mm 5 mps 600 mmHg 36%
    09:00 +23°C° 0 mm 4 mps 600 mmHg 30%
    10:00 +26°C° 0 mm 4 mps 601 mmHg 25%
    11:00 +28°C° 0 mm 4 mps 601 mmHg 19%
    12:00 +29°C° 0 mm 4 mps 601 mmHg 18%
    13:00 +29°C° 0 mm 4 mps 600 mmHg 17%
    14:00 +30°C° 0 mm 4 mps 600 mmHg 15%
    15:00 +29°C° 0 mm 3 mps 599 mmHg 19%
    16:00 +27°C° 0 mm 3 mps 599 mmHg 22%
    17:00 +26°C° 0 mm 3 mps 598 mmHg 26%
    18:00 +24°C° 0 mm 3 mps 598 mmHg 33%
    19:00 +21°C° 0 mm 2 mps 598 mmHg 40%
    20:00 +19°C° 0 mm 1 mps 598 mmHg 47%
    21:00 +18°C° 0 mm 2 mps 598 mmHg 49%
    22:00 +17°C° 0 mm 2 mps 598 mmHg 50%
    23:00 +16°C° 0 mm 2 mps 597 mmHg 52%

    26 January, Saturday

    Time Temperature Precipitation Wind Pressure Humidity
    00:00 +16°C° 0 mm 3 mps 597 mmHg 56%
    01:00 +14°C° 0 mm 3 mps 597 mmHg 61%
    02:00 +14°C° 0 mm 3 mps 596 mmHg 65%
    03:00 +14°C° 0 mm 3 mps 596 mmHg 63%
    04:00 +14°C° 0 mm 3 mps 596 mmHg 62%
    05:00 +14°C° 0 mm 3 mps 596 mmHg 60%
    06:00 +17°C° 0 mm 4 mps 597 mmHg 52%
    07:00 +19°C° 0 mm 4 mps 599 mmHg 43%
    08:00 +21°C° 0 mm 4 mps 600 mmHg 35%
    09:00 +25°C° 0 mm 4 mps 600 mmHg 29%
    10:00 +27°C° 0 mm 4 mps 601 mmHg 24%
    11:00 +29°C° 0 mm 4 mps 601 mmHg 18%
    12:00 +30°C° 0 mm 4 mps 601 mmHg 17%
    13:00 +30°C° 0 mm 4 mps 600 mmHg 17%
    14:00 +30°C° 0 mm 4 mps 600 mmHg 16%
    15:00 +29°C° 0 mm 4 mps 599 mmHg 21%
    16:00 +28°C° 0 mm 3 mps 599 mmHg 25%
    17:00 +26°C° 0 mm 3 mps 598 mmHg 30%
    18:00 +24°C° 0 mm 2 mps 598 mmHg 39%
    19:00 +21°C° 0 mm 2 mps 598 mmHg 48%
    20:00 +19°C° 0 mm 1 mps 598 mmHg 57%
    21:00 +18°C° 0 mm 2 mps 598 mmHg 57%
    22:00 +17°C° 0 mm 2 mps 598 mmHg 57%
    23:00 +17°C° 0 mm 3 mps 598 mmHg 57%

    27 January, Sunday

    Time Temperature Precipitation Wind Pressure Humidity
    00:00 +17°C° 0 mm 3 mps 598 mmHg 63%
    01:00 +16°C° 0 mm 3 mps 597 mmHg 69%
    02:00 +15°C° 0 mm 4 mps 596 mmHg 74%
    03:00 +15°C° 0 mm 4 mps 597 mmHg 72%
    04:00 +14°C° 0 mm 4 mps 597 mmHg 70%
    05:00 +14°C° 0 mm 3 mps 597 mmHg 67%
    06:00 +17°C° 0 mm 4 mps 598 mmHg 58%
    07:00 +19°C° 0 mm 4 mps 599 mmHg 48%
    08:00 +21°C° 0 mm 4 mps 600 mmHg 39%
    09:00 +23°C° 0 mm 4 mps 600 mmHg 32%
    10:00 +26°C° 0 mm 3 mps 601 mmHg 26%
    11:00 +28°C° 0 mm 3 mps 601 mmHg 20%
    12:00 +29°C° 0 mm 3 mps 601 mmHg 19%
    13:00 +30°C° 0 mm 4 mps 600 mmHg 18%
    14:00 +30°C° 0 mm 4 mps 600 mmHg 16%
    15:00 +29°C° 0 mm 3 mps 599 mmHg 20%
    16:00 +28°C° 0 mm 3 mps 599 mmHg 23%
    17:00 +26°C° 0 mm 3 mps 598 mmHg 26%
    18:00 +24°C° 0 mm 2 mps 598 mmHg 33%
    19:00 +21°C° 0 mm 2 mps 598 mmHg 39%
    20:00 +19°C° 0 mm 1 mps 597 mmHg 46%
    21:00 +18°C° 0 mm 2 mps 597 mmHg 46%
    22:00 +17°C° 0 mm 3 mps 597 mmHg 46%
    23:00 +17°C° 0 mm 3 mps 597 mmHg 46%
    Show more